Location: Balaclava NSW 2575, Australia
(34.4510°S, 150.4953°E)
Time: 00:53:28
(UTC+10:00)

Tiangong - Pass Details

Date: 04 August 2021
Orbit: 381 x 386 km, 41.5° (Epoch: 18 September)

Event Time Altitude Azimuth Distance (km) Brightness Sun altitude
Rises 17:57:10 0° 294° (WNW) 2,160 7.0 -8.2°
Reaches altitude 10° 17:59:10 10° 293° (WNW) 1,336 5.4 -8.6°
Maximum altitude 18:02:11 81° 206° (SSW) 377 1.0 -9.2°
Enters shadow 18:04:48 14° 118° (ESE) 1,173 2.9 -9.7°
